Regional Weather Roundup
Issued by NWS

Home | Current Version | Previous Version | Graphics & Text | Print | Product List | Glossary On
Versions: 1 2 3 4 5 6 7 8 9 10 11 12 13 14 15 16 17 18 19 20 21 22 23 24 25 26 27 28 29 30 31 32 33 34 35 36 37 38 39 40 41 42 43 44 45 46 47 48 49 50
585
ASUS43 KFSD 140102
RWRSD

WEATHER ROUNDUP FOR SOUTH DAKOTA
NATIONAL WEATHER SERVICE SIOUX FALLS SD
700 PM CST WED DEC 13 2017

NOTE: "FAIR" INDICATES FEW OR NO CLOUDS BELOW 12,000 FEET WITH NO
SIGNIFICANT WEATHER AND/OR OBSTRUCTIONS TO VISIBILITY.


SDZ001>005-009-010-012>017-140200-
NORTHWEST AND NORTH CENTRAL SOUTH DAKOTA

CITY           SKY/WX    TMP DP  RH WIND       PRES   REMARKS
BUFFALO          N/A     35  25  66 W13       29.99R WCI  26
FAITH            N/A     37  23  56 NW16      30.01R
MOBRIDGE       PTCLDY    36  26  67 N15G25    29.96R
$$

SDZ012>016-024>037-041>051-057-063-072>074-140200-
SOUTHWEST AND SOUTH CENTRAL SOUTH DAKOTA

CITY           SKY/WX    TMP DP  RH WIND       PRES   REMARKS
RAPID CTY ARPT CLOUDY    39  23  52 N20       30.05R
PIERRE         CLOUDY    33  26  75 N10       29.99R WCI  25
CUSTER         CLOUDY    32  17  54 NW5       30.03R WCI  27
ELLSWORTH AFB  CLOUDY    39  24  54 N16       30.04R
PHILIP         CLOUDY    41  22  46 NW17      30.02S
PINE RIDGE     CLOUDY    40  24  53 N18G25    30.05R
SPEARFISH      CLOUDY    37  23  56 W15G21    30.08R
WINNER         FAIR      37  27  67 N15       30.00R
$$

SDZ004>011-016>023-039-040-140200-
NORTHEAST SOUTH DAKOTA

CITY           SKY/WX    TMP DP  RH WIND       PRES   REMARKS
ABERDEEN       CLOUDY    34  24  67 NW13      29.96R WCI  25
WATERTOWN      CLOUDY    30  28  92 N20G25    29.89R WCI  17
BROOKINGS      CLOUDY    31  28  89 N16       29.89R WCI  20
SISSETON         N/A     26  23  88 N16       29.94R WCI  14
$$

SDZ017-020-022-023-036>040-048>070-140200-
SOUTHEAST SOUTH DAKOTA

CITY           SKY/WX    TMP DP  RH WIND       PRES   REMARKS
SIOUX FALLS    CLOUDY    34  30  85 NW14      29.91R WCI  25
HURON          CLOUDY    36  24  62 N24G36    29.95R
CHAMBERLAIN    MOCLDY    37  28  71 N15G21    29.99R
MITCHELL       CLOUDY    37  26  64 NW16G25   29.96R
YANKTON        CLOUDY    38  26  62 NW18G28   29.94R
$$

ABBREVIATIONS USED IN REMARKS
   TC - TEMPERATURE IN CELSIUS
  WCI - WIND CHILL INDEX
   HX - HEAT INDEX
  VSB - VISIBILITY





USA.gov is the U.S. government's official web portal to all federal, state and local government web resources and services.